Keokuk, IA

2:49 AM CST on February 20, 2018 (GMT -0600)
Keokuk Municipal

Weather History for KEOK - January, 2012

Change the Weather History Date:

Sunday, January 29, 2012

  Actual Average Record
Temperature  
Mean Temperature 32 °F -  
Max Temperature 37 °F 34 °F 62 °F (2013)
Min Temperature 26 °F 15 °F -15 °F (1966)
Degree Days  
Heating Degree Days 34    
Moisture  
Dew Point 23 °F    
Average Humidity 69    
Maximum Humidity 80    
Minimum Humidity 52    
Precipitation  
Precipitation 0.00 in - - ()
Sea Level Pressure  
Sea Level Pressure 30.17 in    
Wind  
Wind Speed 8 mph (WSW)    
Max Wind Speed 14 mph    
Max Gust Speed 22 mph    
Visibility 10 miles    
Events      
Averages and records for this station are not official NWS values.
T = Trace of Precipitation, MM = Missing Value Source: NWS Daily Summary

Daily Weather History Graph

Daily Weather History Graph

Search for Another Location

Airport or City:

Trip Planner

Search our weather history database for the weather conditions in past years. The results will help you decide how hot, cold, wet, or windy it might be!

Date:

Astronomy

Jan. 29, 2012 Rise Set
Actual Time 7:18 AM CST 5:19 PM CST
Civil Twilight 6:49 AM CST 5:48 PM CST
Nautical Twilight 6:16 AM CST 6:21 PM CST
Astronomical Twilight 5:44 AM CST 6:53 PM CST
Moon 10:07 AM CST (1/29) No Moon Set
Length of Visible Light 10h 59m
Length of Day
10h 01m
Waxing Crescent, 37% of the Moon is Illuminated
Jan 29
Waxing Crescent
Jan 30
First Quarter
Feb 7
Full
Feb 14
Last Quarter
Feb 21
New

Hourly Weather History & Observations

Time (CST) Temp. Windchill Dew Point Humidity Pressure Visibility Wind Dir Wind Speed Gust Speed Precip Events Conditions
12:15 AM 28.4 °F 20.4 °F 23.0 °F 80% 30.11 in 10.0 mi SW 8.1 mph - N/A   Clear
12:35 AM 28.4 °F 19.7 °F 23.0 °F 80% 30.10 in 10.0 mi SW 9.2 mph - N/A   Clear
12:55 AM 28.4 °F 19.7 °F 21.2 °F 74% 30.10 in 10.0 mi SW 9.2 mph - N/A   Clear
1:15 AM 28.4 °F 20.4 °F 21.2 °F 74% 30.09 in 10.0 mi SW 8.1 mph - N/A   Clear
1:35 AM 26.6 °F 19.1 °F 21.2 °F 80% 30.09 in 10.0 mi SW 6.9 mph - N/A   Clear
1:55 AM 26.6 °F 17.5 °F 21.2 °F 80% 30.09 in 10.0 mi SW 9.2 mph - N/A   Clear
2:15 AM 26.6 °F 18.2 °F 21.2 °F 80% 30.09 in 10.0 mi SW 8.1 mph - N/A   Clear
2:35 AM 26.6 °F 18.2 °F 21.2 °F 80% 30.08 in 10.0 mi SW 8.1 mph - N/A   Clear
2:55 AM 28.4 °F 19.1 °F 21.2 °F 74% 30.08 in 10.0 mi SW 10.4 mph - N/A   Clear
3:15 AM 28.4 °F 19.7 °F 21.2 °F 74% 30.08 in 10.0 mi SW 9.2 mph - N/A   Clear
3:35 AM 28.4 °F 19.1 °F 21.2 °F 74% 30.09 in 10.0 mi SW 10.4 mph - N/A   Clear
3:55 AM 30.2 °F 21.9 °F 21.2 °F 69% 30.09 in 10.0 mi WSW 9.2 mph - N/A   Clear
4:15 AM 30.2 °F 20.8 °F 23.0 °F 75% 30.09 in 10.0 mi WSW 11.5 mph - N/A   Clear
4:35 AM 30.2 °F 21.3 °F 21.2 °F 69% 30.08 in 10.0 mi WSW 10.4 mph - N/A   Clear
4:55 AM 30.2 °F 21.3 °F 21.2 °F 69% 30.08 in 10.0 mi WSW 10.4 mph - N/A   Clear
5:15 AM 28.4 °F 19.1 °F 21.2 °F 74% 30.10 in 10.0 mi West 10.4 mph - N/A   Clear
5:55 AM 28.4 °F 19.1 °F 21.2 °F 74% 30.10 in 10.0 mi West 10.4 mph - N/A   Clear
6:15 AM 28.4 °F 21.2 °F 21.2 °F 74% 30.11 in 10.0 mi WSW 6.9 mph - N/A   Clear
6:35 AM 28.4 °F 19.7 °F 21.2 °F 74% 30.12 in 10.0 mi West 9.2 mph - N/A   Clear
6:55 AM 28.4 °F 20.4 °F 21.2 °F 74% 30.13 in 10.0 mi West 8.1 mph - N/A   Clear
7:15 AM 28.4 °F 19.7 °F 21.2 °F 74% 30.14 in 10.0 mi West 9.2 mph - N/A   Clear
7:35 AM 28.4 °F 19.7 °F 21.2 °F 74% 30.16 in 10.0 mi West 9.2 mph - N/A   Clear
7:55 AM 28.4 °F 19.7 °F 21.2 °F 74% 30.16 in 10.0 mi West 9.2 mph - N/A   Clear
8:15 AM 30.2 °F 22.6 °F 21.2 °F 69% 30.18 in 10.0 mi West 8.1 mph - N/A   Clear
8:35 AM 30.2 °F 22.6 °F 23.0 °F 75% 30.18 in 10.0 mi West 8.1 mph - N/A   Scattered Clouds
8:55 AM 30.2 °F 22.6 °F 24.8 °F 80% 30.19 in 10.0 mi West 8.1 mph - N/A   Scattered Clouds
9:15 AM 33.8 °F 24.8 °F 24.8 °F 70% 30.20 in 10.0 mi WNW 12.7 mph 18.4 mph N/A   Scattered Clouds
9:35 AM 33.8 °F 25.3 °F 26.6 °F 75% 30.20 in 10.0 mi NW 11.5 mph 20.7 mph N/A   Scattered Clouds
9:55 AM 33.8 °F 24.3 °F 26.6 °F 75% 30.21 in 10.0 mi NNW 13.8 mph 20.7 mph N/A   Scattered Clouds
10:15 AM 33.8 °F 24.8 °F 26.6 °F 75% 30.22 in 10.0 mi NNW 12.7 mph 21.9 mph N/A   Scattered Clouds
10:35 AM 33.8 °F 24.3 °F 26.6 °F 75% 30.23 in 10.0 mi NW 13.8 mph 18.4 mph N/A   Clear
11:15 AM 33.8 °F 25.3 °F 23.0 °F 65% 30.24 in 10.0 mi NNW 11.5 mph 17.3 mph N/A   Clear
11:35 AM 33.8 °F 25.8 °F 24.8 °F 70% 30.24 in 10.0 mi NW 10.4 mph - N/A   Clear
11:55 AM 35.6 °F 29.2 °F 23.0 °F 60% 30.24 in 10.0 mi WNW 8.1 mph 17.3 mph N/A   Clear
12:15 PM 35.6 °F 29.2 °F 24.8 °F 65% 30.23 in 10.0 mi WNW 8.1 mph - N/A   Clear
12:35 PM 35.6 °F 30.7 °F 24.8 °F 65% 30.23 in 10.0 mi WNW 5.8 mph - N/A   Clear
12:55 PM 35.6 °F 27.5 °F 23.0 °F 60% 30.23 in 10.0 mi NW 11.5 mph 16.1 mph N/A   Clear
1:15 PM 35.6 °F 28.0 °F 23.0 °F 60% 30.22 in 10.0 mi WNW 10.4 mph - N/A   Clear
1:35 PM 37.4 °F 32.1 °F 24.8 °F 60% 30.22 in 10.0 mi West 6.9 mph - N/A   Clear
1:55 PM 37.4 °F 33.8 °F 24.8 °F 60% 30.21 in 10.0 mi WSW 4.6 mph - N/A   Clear
2:15 PM 37.4 °F 30.8 °F 23.0 °F 56% 30.22 in 10.0 mi West 9.2 mph - N/A   Clear
2:35 PM 37.4 °F 30.8 °F 23.0 °F 56% 30.21 in 10.0 mi West 9.2 mph - N/A   Clear
2:55 PM 37.4 °F 31.4 °F 23.0 °F 56% 30.21 in 10.0 mi West 8.1 mph - N/A   Clear
3:15 PM 37.4 °F 32.8 °F 21.2 °F 52% 30.22 in 10.0 mi West 5.8 mph - N/A   Clear
3:35 PM 37.4 °F 32.1 °F 24.8 °F 60% 30.22 in 10.0 mi West 6.9 mph - N/A   Clear
3:55 PM 37.4 °F 32.1 °F 24.8 °F 60% 30.23 in 10.0 mi West 6.9 mph - N/A   Clear
4:15 PM 37.4 °F 32.1 °F 23.0 °F 56% 30.22 in 10.0 mi WSW 6.9 mph - N/A   Clear
4:35 PM 35.6 °F 30.7 °F 23.0 °F 60% 30.23 in 10.0 mi SW 5.8 mph - N/A   Clear
5:15 PM 35.6 °F - 21.2 °F 56% 30.22 in 10.0 mi Calm Calm - N/A   Clear
5:35 PM 33.8 °F - 23.0 °F 65% 30.22 in 10.0 mi Calm Calm - N/A   Clear
5:55 PM 33.8 °F - 21.2 °F 60% 30.22 in 10.0 mi Calm Calm - N/A   Clear
6:15 PM 30.2 °F - 21.2 °F 69% 30.22 in 10.0 mi Calm Calm - N/A   Clear
6:35 PM 33.8 °F 30.8 °F 21.2 °F 60% 30.22 in 10.0 mi SSE 3.5 mph - N/A   Scattered Clouds
6:55 PM 30.2 °F 26.7 °F 23.0 °F 75% 30.22 in 10.0 mi SSE 3.5 mph - N/A   Mostly Cloudy
7:15 PM 33.8 °F 29.6 °F 24.8 °F 70% 30.22 in 10.0 mi SSE 4.6 mph - N/A   Overcast
7:35 PM 33.8 °F 29.6 °F 23.0 °F 65% 30.21 in 10.0 mi SSE 4.6 mph - N/A   Scattered Clouds
7:55 PM 32.0 °F 27.5 °F 23.0 °F 69% 30.21 in 10.0 mi SSE 4.6 mph - N/A   Clear
8:15 PM 32.0 °F 28.7 °F 21.2 °F 64% 30.21 in 10.0 mi SSE 3.5 mph - N/A   Clear
8:35 PM 30.2 °F 26.7 °F 21.2 °F 69% 30.19 in 10.0 mi SE 3.5 mph - N/A   Clear
8:55 PM 28.4 °F 22.2 °F 23.0 °F 80% 30.18 in 10.0 mi SE 5.8 mph - N/A   Clear
9:15 PM 30.2 °F 26.7 °F 24.8 °F 80% 30.18 in 10.0 mi SE 3.5 mph - N/A   Clear
9:35 PM 30.2 °F 25.4 °F 24.8 °F 80% 30.17 in 10.0 mi SE 4.6 mph - N/A   Scattered Clouds
9:55 PM 32.0 °F 27.5 °F 24.8 °F 75% 30.16 in 10.0 mi SE 4.6 mph - N/A   Mostly Cloudy
10:15 PM 33.8 °F 29.6 °F 24.8 °F 70% 30.15 in 10.0 mi SE 4.6 mph - N/A   Overcast
10:35 PM 32.0 °F 26.4 °F 24.8 °F 75% 30.14 in 10.0 mi SE 5.8 mph - N/A   Overcast
10:55 PM 33.8 °F 27.7 °F 24.8 °F 70% 30.15 in 10.0 mi ESE 6.9 mph - N/A   Overcast
11:15 PM 32.0 °F 26.4 °F 24.8 °F 75% 30.14 in 10.0 mi SE 5.8 mph - N/A   Mostly Cloudy
11:35 PM 32.0 °F 25.6 °F 24.8 °F 75% 30.13 in 10.0 mi SE 6.9 mph - N/A   Mostly Cloudy
11:55 PM 33.8 °F 27.0 °F 24.8 °F 70% 30.12 in 10.0 mi SE 8.1 mph - N/A   Scattered Clouds